Location: Bishausen
(51.6334°N, 9.9631°E)
Time: 09:50:49
(UTC+00:00)

Cosmos 841 Rocket - Pass Details

Date: 23 May 2024
Orbit: 744 x 770 km, 74.0° (Epoch: 18 June)

Event Time Altitude Azimuth Distance (km) Brightness Sun altitude
Rises 00:23:52 0° 335° (NNW) 3,231 7.5 -16.3°
Reaches altitude 10° 00:26:15 10° 337° (NNW) 2,306 6.7 -16.1°
Maximum altitude 00:31:30 77° 64° (ENE) 790 3.6 -15.9°
Enters shadow 00:36:26 12° 151° (SSE) 2,188 5.5 -15.7°
